COSMOS 1275 DEB, 12692

Orbit data source: Space-Track

COSMOS 1275 DEB, 12692 is space debris in LEO originally from a launch on Thu, 04 Jun 1981 UTC launched from the Plesetsk Missile And Space Complex (PKMTR). Debris objects in space refer to the collection of defunct objects orbiting the Earth. Examples of debris include non-operational satellites, rocket bodies, and fragments generated from explosions, collisions, or faulty payload assembly.

Loading next visibility...
Identifier
12692, 1981-053AL
Orbit
LEO
Country
Flag of CISCIS
Related business
Manufacturer
Unknown
Mission
Spacecraft
Bus & Motor
Unknown
Mass
Unknown
Launch date (UTC)
1981-06-04 (44 years ago)
Launch vehicle
Unknown
Launch site
Plesetsk Missile And Space Complex (PKMTR)
Object type
Payload
Rocket body
Debris
Shape & HBR
Unknown
Radar Cross Section
0.500 m², Medium (>0.1 m² and < 1m²)

Expand to show TLE details & history
Last TLE update: 9 hours ago

TLE from 9 hours ago
0 COSMOS 1275 DEB
1 12692U 81053AL  25242.80130068  .00002104  00000-0  75150-3 0  9996
2 12692  82.8937 272.2566 0068402 178.0675 182.0792 14.32439799276424
Epoch: 2025-08-30T19:13Z
TLE epoch observation values (Epoch: 2025-08-30T19:13:52.378Z)
Latitude
0.00003°
Longitude
4.55798°
Altitude
835.532 km
Speed
7.41 km/s
True Right ascension
18h 09m 01s
True Declination
0° 00' 00"
Sunlit
Object was in daylight at epoch
Visualization orbit readout
Latitude
Unknown
Longitude
Unknown
Altitude
Unknown
Speed
Unknown
Apparent Right ascension
Unknown
Apparent Declination
Unknown
Sunlit
N/A
Visualization observer readout
Local Sidereal Time
20:12:31
Azimuth
Unknown
Elevation
Unknown
Doppler factor
Unknown
Orbital elements
Apogee altitude
829.626 km
Perigee altitude
731.691 km
Semi-major axis
7,158.796 km
Eccentricity
0.00684
Inclination
82.8937°
RAAN
272.2566°
Arg. of periapsis
178.0675°
True anomaly
182.051°
Mean anomaly
182.0792°
Eccentric anomaly
182.06508°
Mean motion
3.5833 °/min
Orbital period
100.47 mins
BSTAR
0.0007515
Loading maneuver chart data...
Computing Atmospheric mass density...
Loading historical data...
Loading historical data...
Loading historical data...
Loading historical data...
Loading historical data...
Loading historical data...
Loading historical data...

Documentation

Showing up to 5 results
|